Погода в Рождествене

Россия / Республика Мордовия     54°41′00″N   45°18′02″E
темп.,
°C
ветер,
м/с
пор.,
м/с
влажн.,
%
обл.,
%
осадки,
мм/ч
давл.,
гПа
погр.,
м
21 января, чт
чт2100:00−17зюз359898 0.0 101990
03:00−15зюз389699 0.1 1020215
06:00−14зюз499699 0.1 1020232
09:00−13з4109499 0.3 1020312
12:00−12зюз5992100 0.0 1021306
15:00−11зюз4989100 0.0 1019377
18:00−12юз41090100 0.0 1019355
21:00−12юз4995100 0.9 1017370
22 января, пт
пт2200:00−12юз3895100 0.9 1017466
03:00−14зюз2396100 1.1 101769
06:00−14зюз1296100 0.0 101820
09:00−14ююз1195100 0.0 101920
12:00−11ю239399 0.0 1019176
15:00−10ююв2395100 0.1 1019179
18:00−9юв3596100 0.6 1019178
21:00−8юв4796100 1.4 1019227
23 января, сб
сб2300:00−6юв4796100 1.1 1019219
03:00−4юв3597100 1.7 1018138
06:000ю4998100 0.5 1016442
09:00+1юз511100100 1.2 1016417
12:00+2юз614100100 0.6 1016561
15:00+1юз51298100 0.6 1016567
18:00+1юз51195100 0.0 1017531
21:00+1юз51194100 0.0 1018559
24 января, вс
вс2400:00+1юз41197100 0.0 1018468
03:00+1ююз41098100 0.0 1019355
06:00+1ююз4998100 0.0 1019354
09:00+1ююз41097100 0.1 1020369
12:00+1ююз41098100 0.0 1020396
15:00+1ююз3997100 0.0 1020435
18:000ююз41092100 0.1 1021426
21:000ююз41093100 0.4 1022437
25 января, пн
пн2500:000ююз41193100 0.4 1022454
03:00−1ююз51091100 0.5 1023417
06:00−3ю41194100 0.0 1023382
09:00−2ю41094100 0.0 1023551
12:00−1ю51191100 0.0 1022578
15:00−1ю5991100 0.0 1022648
18:00−2ю41093100 0.0 1021576
21:00−2ю41093100 0.1 1021540